Regional Weather Roundup
Issued by NWS Lake Charles, LA

Home | Current Version | Previous Version | Text Only | Print | Product List | Glossary On
Versions: 1 2 3 4 5 6 7 8 9 10 11 12 13 14 15 16 17 18 19 20 21 22 23 24 25 26 27 28 29 30 31 32 33 34 35 36 37 38 39 40 41 42 43 44 45 46 47 48 49 50
395
ASUS44 KLCH 070010
RWRLCH
REGIONAL WEATHER ROUNDUP
NATIONAL WEATHER SERVICE LAKE CHARLES LA
700 PM CDT FRI MAY 06 2016

Note: "fair" indicates few or no clouds below 12,000 feet with no
significant weather and/or obstructions to visibility.


ACROSS SOUTHEAST TEXAS

CITY           SKY/WX    TMP DP  RH WIND       PRES   REMARKS
BEAUMONT       SUNNY     77  57  50 S7        29.99S
BEAUMONT CITY  FAIR      81  51  35 S5        30.00S
ORANGE         CLEAR     77  53  42 S6        30.01S
JASPER         SUNNY     78  51  38 NW6       30.02S
$$

ACROSS CENTRAL LOUISIANA

CITY           SKY/WX    TMP DP  RH WIND       PRES   REMARKS
LEESVILLE      SUNNY     77  49  37 NE6       30.00S
FULLERTON      FAIR      75  49  39 CALM      29.98S
ALEXANDRIA INT SUNNY     77  44  30 N5        29.99S
ESLER FIELD    CLEAR     79  48  33 CALM      30.01S
DERIDDER       FAIR      79  49  34 N5        30.02R
OAKDALE        CLEAR     76  51  41 CALM      30.00S
OPELOUSAS      FAIR      74  47  38 N7G16     30.00S
$$

ACROSS SOUTHWEST AND SOUTH CENTRAL LOUISIANA

CITY           SKY/WX    TMP DP  RH WIND       PRES   REMARKS
SULPHUR        CLEAR     78  58  50 S7        30.00S
LAKE CHARLES   SUNNY     76  57  51 S7        29.99S
CHENNAULT INT  NOT AVBL
CAMERON PHI    CLEAR     75  57  53 SW7       30.03S
DEQUINCY       FAIR      79  52  38 CALM      30.00S
JENNINGS       FAIR      77  54  44 CALM      30.00S
LAFAYETTE      CLEAR     77  47  34 N9        30.00S
NEW IBERIA     CLEAR     77  49  37 N7        30.00S
ABBEVILLE      FAIR      75  53  46 N3        30.00S
PATTERSON      NOT AVBL
SALT POINT       N/A     74  57  55 VRB6      29.98F
$$

SELECTED SITES ACROSS THE REGION

CITY           SKY/WX    TMP DP  RH WIND       PRES   REMARKS
HOUSTON BUSH   SUNNY     79  52  38 SE5       29.99S
HOUSTON HOBBY  SUNNY     79  51  37 S7        29.98F
GALVESTON      SUNNY     75  54  47 S8        30.02S
COLLEGE STAT   SUNNY     81  52  36 SE8       29.99S
CONROE         MOSUNNY   80  50  34 NE5       29.99F
HUNTSVILLE     SUNNY     82  50  32 CALM      29.99F
LUFKIN         SUNNY     79  51  37 E5        30.00S
SHREVEPORT     SUNNY     78  47  33 N6        30.01S
MONROE         CLEAR     73  50  44 NE7       30.02F
NATCHEZ MS     CLEAR     72  45  37 N6        30.01S
BATON ROUGE    CLEAR     75  43  31 NW6       30.00S
N.O. INTL ARPT PTCLDY    74  47  38 N8        29.99S
SLIDELL        CLEAR     74  49  41 N5        29.98S
$$

MARINE REPORTS

STATION/POSITION TIME  SKY/WX   TEMP    WIND        PRES    VSBY
                                AIR SEA DIR/SP/G
                 (UTC)          (F)     (DEG/KT/KT) (MB)    (MI)
BUOY 30 S HIGH I 2350            75 77  200/  8/ 10 1016.0F
WVE H/P(F/S)=  1

SEA RIM ST PARK  0000            75     210/  8/ 10 1016.5F
PORT ARTHUR      2300               75              1016.2F
SABINE PASS N    2300               77              1017.5F
TEXAS POINT      NOT AVBL
CALCASIEU PASS   2300               77              1015.3F
LK CHARLES BEACH 2300               74              1016.1F
MARSH ISLAND     2300            74     350/  8/ 13   N/A
FRESH WATER LOCK 2300               78              1016.7F
AMERADA PASS     2300               76              1015.6F
$$




USA.gov is the U.S. government's official web portal to all federal, state and local government web resources and services.